| time (UTC) | temp F | wind direction | speed MPH | gust MPH | rain 1hr in | rain 24hr in | rain mn in | humidity % | barometer mb |
| 20260831001456 | 68 | 260 | 2.0 | 2.0 | 0.00 | 0.00 | 0.00 | 83 | 1019.4 |
| 20260831000953 | 67 | 247 | 2.0 | 2.0 | 0.00 | 0.00 | 0.00 | 84 | 1019.4 |
| 20260831000449 | 67 | 244 | 0.0 | 0.0 | 0.00 | 0.00 | 0.00 | 86 | 1019.3 |
| 20260830235947 | 67 | 251 | 0.0 | 0.0 | 0.00 | 0.00 | 0.00 | 88 | 1019.3 |
| 20260830235442 | 66 | 227 | 1.0 | 1.0 | 0.00 | 0.00 | 0.00 | 90 | 1019.3 |
| 20260830234938 | 66 | 262 | 0.0 | 0.0 | 0.00 | 0.00 | 0.00 | 91 | 1019.3 |
| 20260830234433 | 66 | 256 | 1.0 | 1.0 | 0.00 | 0.00 | 0.00 | 92 | 1019.2 |
| 20260830233928 | 66 | 218 | 0.0 | 1.0 | 0.00 | 0.00 | 0.00 | 92 | 1019.1 |
| 20260830233424 | 66 | 268 | 0.0 | 0.0 | 0.00 | 0.00 | 0.00 | 92 | 1019.0 |
| 20260830232919 | 67 | 251 | 0.0 | 0.0 | 0.00 | 0.00 | 0.00 | 91 | 1019.1 |
| 20260830232415 | 67 | 267 | 0.0 | 0.0 | 0.00 | 0.00 | 0.00 | 91 | 1019.1 |
| 20260830231912 | 67 | 248 | 0.0 | 1.0 | 0.00 | 0.00 | 0.00 | 90 | 1019.1 |
| 20260830231407 | 67 | 271 | 0.0 | 0.0 | 0.00 | 0.00 | 0.00 | 90 | 1019.1 |
| 20260830230906 | 68 | 256 | 0.0 | 0.0 | 0.00 | 0.00 | 0.00 | 89 | 1019.0 |
| 20260830230401 | 68 | 250 | 0.0 | 0.0 | 0.00 | 0.00 | 0.00 | 88 | 1019.2 |
| 20260830225900 | 68 | 250 | 0.0 | 0.0 | 0.00 | 0.00 | 0.00 | 87 | 1019.3 |
| 20260830225356 | 68 | 271 | 0.0 | 1.0 | 0.00 | 0.00 | 0.00 | 86 | 1019.2 |
| 20260830224850 | 68 | 280 | 0.0 | 0.0 | 0.00 | 0.00 | 0.00 | 85 | 1019.0 |
| 20260830224349 | 68 | 268 | 1.0 | 1.0 | 0.00 | 0.00 | 0.00 | 85 | 1019.0 |
| 20260830223847 | 68 | 271 | 1.0 | 1.0 | 0.00 | 0.00 | 0.00 | 84 | 1019.2 |
| 20260830223343 | 68 | 262 | 0.0 | 1.0 | 0.00 | 0.00 | 0.00 | 85 | 1019.2 |
| 20260830222842 | 68 | 267 | 0.0 | 0.0 | 0.00 | 0.00 | 0.00 | 85 | 1019.2 |
| 20260830222337 | 68 | 256 | 0.0 | 0.0 | 0.00 | 0.00 | 0.00 | 85 | 1018.9 |
| 20260830221832 | 69 | 268 | 0.0 | 0.0 | 0.00 | 0.00 | 0.00 | 84 | 1019.0 |
| 20260830221329 | 69 | 268 | 0.0 | 0.0 | 0.00 | 0.00 | 0.00 | 84 | 1019.1 |
| 20260830220830 | 69 | 229 | 2.0 | 2.0 | 0.00 | 0.00 | 0.00 | 83 | 1018.9 |
| 20260830220324 | 69 | 257 | 0.0 | 0.0 | 0.00 | 0.00 | 0.00 | 82 | 1018.8 |
| 20260830215822 | 69 | 266 | 1.0 | 1.0 | 0.00 | 0.00 | 0.00 | 82 | 1019.1 |
| 20260830215317 | 69 | 277 | 0.0 | 1.0 | 0.00 | 0.00 | 0.00 | 80 | 1019.0 |
| 20260830214812 | 69 | 236 | 1.0 | 1.0 | 0.00 | 0.00 | 0.00 | 80 | 1018.8 |
| 20260830214307 | 69 | 264 | 0.0 | 0.0 | 0.00 | 0.00 | 0.00 | 82 | 1019.1 |
| 20260830213806 | 69 | 268 | 0.0 | 0.0 | 0.00 | 0.00 | 0.00 | 82 | 1018.9 |
| 20260830213301 | 69 | 262 | 0.0 | 0.0 | 0.00 | 0.00 | 0.00 | 83 | 1019.0 |
| 20260830212757 | 69 | 263 | 0.0 | 1.0 | 0.00 | 0.00 | 0.00 | 84 | 1019.0 |
| 20260830212253 | 69 | 240 | 0.0 | 1.0 | 0.00 | 0.00 | 0.00 | 85 | 1019.0 |
| 20260830211752 | 69 | 203 | 2.0 | 2.0 | 0.00 | 0.00 | 0.00 | 83 | 1019.1 |
| 20260830211251 | 70 | 226 | 0.0 | 1.0 | 0.00 | 0.00 | 0.00 | 81 | 1019.3 |
| 20260830210748 | 70 | 265 | 1.0 | 1.0 | 0.00 | 0.00 | 0.00 | 80 | 1019.0 |
| 20260830210246 | 70 | 288 | 1.0 | 1.0 | 0.00 | 0.00 | 0.00 | 81 | 1019.2 |
| 20260830205744 | 70 | 277 | 0.0 | 0.0 | 0.00 | 0.00 | 0.00 | 80 | 1019.0 |
| 20260830205239 | 70 | 267 | 0.0 | 0.0 | 0.00 | 0.00 | 0.00 | 79 | 1019.0 |
| 20260830204734 | 69 | 211 | 1.0 | 1.0 | 0.00 | 0.00 | 0.00 | 80 | 1019.0 |
| 20260830204233 | 69 | 195 | 1.0 | 2.0 | 0.00 | 0.00 | 0.00 | 81 | 1019.0 |
| 20260830203729 | 70 | 169 | 2.0 | 2.0 | 0.00 | 0.00 | 0.00 | 78 | 1019.0 |
| 20260830203225 | 70 | 230 | 1.0 | 1.0 | 0.00 | 0.00 | 0.00 | 76 | 1019.2 |
| 20260830202724 | 70 | 215 | 1.0 | 1.0 | 0.00 | 0.00 | 0.00 | 75 | 1019.2 |
| 20260830202220 | 71 | 256 | 1.0 | 1.0 | 0.00 | 0.00 | 0.00 | 74 | 1019.2 |
| 20260830201719 | 71 | 284 | 1.0 | 2.0 | 0.00 | 0.00 | 0.00 | 73 | 1019.3 |
| 20260830201214 | 71 | 281 | 4.0 | 5.0 | 0.00 | 0.00 | 0.00 | 72 | 1019.3 |
| 20260830200710 | 71 | 277 | 5.0 | 7.0 | 0.00 | 0.00 | 0.00 | 72 | 1019.1 |
| 20260830200209 | 72 | 283 | 3.0 | 5.0 | 0.00 | 0.00 | 0.00 | 71 | 1019.3 |
| 20260830195704 | 72 | 275 | 0.0 | 0.0 | 0.00 | 0.00 | 0.00 | 72 | 1019.0 |
| 20260830195202 | 72 | 280 | 3.0 | 3.0 | 0.00 | 0.00 | 0.00 | 71 | 1019.1 |
| 20260830194701 | 72 | 271 | 2.0 | 2.0 | 0.00 | 0.00 | 0.00 | 71 | 1019.1 |
| 20260830194155 | 73 | 322 | 5.0 | 7.0 | 0.00 | 0.00 | 0.00 | 70 | 1019.1 |
| 20260830193650 | 72 | 321 | 5.0 | 6.0 | 0.00 | 0.00 | 0.00 | 72 | 1019.1 |
| 20260830193145 | 72 | 322 | 6.0 | 8.0 | 0.00 | 0.00 | 0.00 | 74 | 1019.1 |
| 20260830192640 | 72 | 349 | 7.0 | 8.0 | 0.00 | 0.00 | 0.00 | 78 | 1019.1 |
| 20260830192135 | 73 | 274 | 2.0 | 2.0 | 0.00 | 0.00 | 0.00 | 77 | 1018.8 |
| 20260830191631 | 73 | 268 | 0.0 | 0.0 | 0.00 | 0.00 | 0.00 | 77 | 1018.8 |
| 20260830191126 | 74 | 356 | 1.0 | 2.0 | 0.00 | 0.00 | 0.00 | 73 | 1018.8 |
| 20260830190621 | 74 | 277 | 0.0 | 0.0 | 0.00 | 0.00 | 0.00 | 75 | 1018.9 |
| 20260830190115 | 74 | 267 | 0.0 | 0.0 | 0.00 | 0.00 | 0.00 | 71 | 1018.8 |
| 20260830185609 | 75 | 310 | 1.0 | 1.0 | 0.00 | 0.00 | 0.00 | 69 | 1019.0 |
| 20260830185105 | 75 | 316 | 2.0 | 2.0 | 0.00 | 0.00 | 0.00 | 69 | 1018.8 |
| 20260830184603 | 76 | 299 | 2.0 | 2.0 | 0.00 | 0.00 | 0.00 | 67 | 1018.8 |
| 20260830184059 | 77 | 292 | 3.0 | 3.0 | 0.00 | 0.00 | 0.00 | 64 | 1018.7 |
| 20260830183553 | 78 | 268 | 1.0 | 1.0 | 0.00 | 0.00 | 0.00 | 64 | 1018.7 |
| 20260830183049 | 77 | 255 | 0.0 | 0.0 | 0.00 | 0.00 | 0.00 | 65 | 1018.8 |
| 20260830182544 | 77 | 255 | 1.0 | 1.0 | 0.00 | 0.00 | 0.00 | 65 | 1018.8 |
| 20260830182040 | 77 | 262 | 1.0 | 1.0 | 0.00 | 0.00 | 0.00 | 64 | 1018.8 |
| 20260830181536 | 77 | 290 | 1.0 | 2.0 | 0.00 | 0.00 | 0.00 | 65 | 1018.9 |
| 20260830181035 | 76 | 266 | 1.0 | 1.0 | 0.00 | 0.00 | 0.00 | 65 | 1019.1 |
| 20260830180535 | 76 | 325 | 2.0 | 3.0 | 0.00 | 0.00 | 0.00 | 64 | 1019.0 |
| 20260830180034 | 77 | 318 | 2.0 | 2.0 | 0.00 | 0.00 | 0.00 | 66 | 1019.0 |
| 20260830175533 | 77 | 270 | 2.0 | 2.0 | 0.00 | 0.00 | 0.00 | 64 | 1019.2 |
| 20260830175029 | 77 | 242 | 1.0 | 1.0 | 0.00 | 0.00 | 0.00 | 64 | 1019.1 |
| 20260830174524 | 77 | 260 | 3.0 | 3.0 | 0.00 | 0.00 | 0.00 | 63 | 1019.1 |
| 20260830174019 | 78 | 255 | 3.0 | 3.0 | 0.00 | 0.00 | 0.00 | 62 | 1019.4 |
| 20260830173515 | 77 | 288 | 1.0 | 2.0 | 0.00 | 0.00 | 0.00 | 64 | 1019.1 |
| 20260830173010 | 77 | 268 | 1.0 | 1.0 | 0.00 | 0.00 | 0.00 | 65 | 1019.3 |
| 20260830172507 | 77 | 213 | 1.0 | 2.0 | 0.00 | 0.00 | 0.00 | 65 | 1019.3 |
| 20260830172003 | 76 | 222 | 4.0 | 5.0 | 0.00 | 0.00 | 0.00 | 68 | 1019.2 |
| 20260830171457 | 76 | 242 | 1.0 | 1.0 | 0.00 | 0.00 | 0.00 | 67 | 1019.3 |
| 20260830170957 | 75 | 209 | 6.0 | 7.0 | 0.00 | 0.00 | 0.00 | 69 | 1019.2 |
| 20260830170452 | 76 | 217 | 4.0 | 5.0 | 0.00 | 0.00 | 0.00 | 67 | 1019.4 |
| 20260830165950 | 76 | 223 | 4.0 | 5.0 | 0.00 | 0.00 | 0.00 | 67 | 1019.4 |
| 20260830165447 | 76 | 196 | 2.0 | 2.0 | 0.00 | 0.00 | 0.00 | 67 | 1019.4 |
| 20260830164942 | 76 | 192 | 2.0 | 2.0 | 0.00 | 0.00 | 0.00 | 67 | 1019.7 |
| 20260830164438 | 75 | 212 | 1.0 | 2.0 | 0.00 | 0.00 | 0.00 | 68 | 1019.4 |
| 20260830163934 | 75 | 234 | 1.0 | 2.0 | 0.00 | 0.00 | 0.00 | 67 | 1019.6 |
| 20260830163431 | 74 | 199 | 5.0 | 6.0 | 0.00 | 0.00 | 0.00 | 68 | 1019.8 |
| 20260830162930 | 75 | 214 | 6.0 | 7.0 | 0.00 | 0.00 | 0.00 | 68 | 1020.0 |
| 20260830162426 | 74 | 234 | 3.0 | 5.0 | 0.00 | 0.00 | 0.00 | 70 | 1019.8 |
| 20260830161925 | 73 | 214 | 7.0 | 8.0 | 0.00 | 0.00 | 0.00 | 70 | 1020.0 |
| 20260830161420 | 74 | 224 | 4.0 | 5.0 | 0.00 | 0.00 | 0.00 | 70 | 1020.3 |
| 20260830160915 | 73 | 196 | 6.0 | 7.0 | 0.00 | 0.00 | 0.00 | 71 | 1020.3 |
| 20260830160411 | 73 | 213 | 6.0 | 7.0 | 0.00 | 0.00 | 0.00 | 71 | 1020.2 |
| 20260830155905 | 73 | 234 | 1.0 | 2.0 | 0.00 | 0.00 | 0.00 | 70 | 1020.3 |
| 20260830155402 | 72 | 232 | 1.0 | 2.0 | 0.00 | 0.00 | 0.00 | 71 | 1020.2 |
| 20260830154851 | 72 | 226 | 1.0 | 2.0 | 0.00 | 0.00 | 0.00 | 69 | 1020.3 |
| 20260830154347 | 71 | 245 | 1.0 | 1.0 | 0.00 | 0.00 | 0.00 | 72 | 1020.6 |
| 20260830153844 | 71 | 202 | 7.0 | 8.0 | 0.00 | 0.00 | 0.00 | 73 | 1020.7 |
| 20260830153339 | 71 | 217 | 7.0 | 8.0 | 0.00 | 0.00 | 0.00 | 71 | 1020.7 |
| 20260830152837 | 70 | 210 | 3.0 | 3.0 | 0.00 | 0.00 | 0.00 | 74 | 1020.7 |
| 20260830152332 | 69 | 224 | 5.0 | 6.0 | 0.00 | 0.00 | 0.00 | 72 | 1020.6 |
| 20260830151827 | 69 | 231 | 2.0 | 3.0 | 0.00 | 0.00 | 0.00 | 75 | 1020.6 |
| 20260830151326 | 69 | 229 | 5.0 | 7.0 | 0.00 | 0.00 | 0.00 | 73 | 1020.7 |
| 20260830150821 | 68 | 232 | 3.0 | 3.0 | 0.00 | 0.00 | 0.00 | 74 | 1020.6 |
| 20260830150321 | 68 | 213 | 5.0 | 7.0 | 0.00 | 0.00 | 0.00 | 74 | 1020.7 |
| 20260830145815 | 68 | 221 | 4.0 | 5.0 | 0.00 | 0.00 | 0.00 | 73 | 1020.6 |
| 20260830145310 | 68 | 214 | 4.0 | 5.0 | 0.00 | 0.00 | 0.00 | 72 | 1020.9 |
| 20260830144806 | 68 | 299 | 2.0 | 2.0 | 0.00 | 0.00 | 0.00 | 73 | 1020.9 |
| 20260830144301 | 69 | 221 | 4.0 | 5.0 | 0.00 | 0.00 | 0.00 | 73 | 1021.1 |
| 20260830143757 | 69 | 251 | 1.0 | 3.0 | 0.00 | 0.00 | 0.00 | 72 | 1020.6 |
| 20260830143256 | 69 | 274 | 1.0 | 2.0 | 0.00 | 0.00 | 0.00 | 73 | 1020.8 |
| 20260830142751 | 69 | 262 | 2.0 | 2.0 | 0.00 | 0.00 | 0.00 | 74 | 1020.5 |
| 20260830142246 | 69 | 251 | 2.0 | 2.0 | 0.00 | 0.00 | 0.00 | 73 | 1020.4 |
| 20260830141741 | 68 | 254 | 1.0 | 2.0 | 0.00 | 0.00 | 0.00 | 75 | 1020.4 |
| 20260830141236 | 69 | 308 | 1.0 | 2.0 | 0.00 | 0.00 | 0.00 | 75 | 1020.4 |
| 20260830140731 | 68 | 215 | 1.0 | 2.0 | 0.00 | 0.00 | 0.00 | 78 | 1020.7 |
| 20260830140226 | 67 | 241 | 1.0 | 2.0 | 0.00 | 0.00 | 0.00 | 80 | 1020.7 |
| 20260830135720 | 66 | 191 | 1.0 | 2.0 | 0.00 | 0.00 | 0.00 | 83 | 1020.7 |
| 20260830135216 | 65 | 252 | 0.0 | 0.0 | 0.00 | 0.00 | 0.00 | 83 | 1020.8 |
| 20260830134712 | 65 | 261 | 0.0 | 1.0 | 0.00 | 0.00 | 0.00 | 83 | 1020.7 |
| 20260830134206 | 64 | 270 | 0.0 | 0.0 | 0.00 | 0.00 | 0.00 | 85 | 1020.9 |
| 20260830133702 | 64 | 273 | 0.0 | 1.0 | 0.00 | 0.00 | 0.00 | 86 | 1020.8 |
| 20260830133158 | 63 | 285 | 0.0 | 0.0 | 0.00 | 0.00 | 0.00 | 87 | 1021.0 |
| 20260830132653 | 62 | 255 | 0.0 | 1.0 | 0.00 | 0.00 | 0.00 | 88 | 1020.9 |
| 20260830132149 | 62 | 255 | 0.0 | 0.0 | 0.00 | 0.00 | 0.00 | 89 | 1021.1 |
| 20260830131648 | 62 | 214 | 1.0 | 1.0 | 0.00 | 0.00 | 0.00 | 89 | 1021.0 |
| 20260830131143 | 62 | 241 | 0.0 | 0.0 | 0.00 | 0.00 | 0.00 | 90 | 1021.1 |
| 20260830130637 | 61 | 270 | 0.0 | 0.0 | 0.00 | 0.00 | 0.00 | 91 | 1021.3 |
| 20260830130131 | 60 | 279 | 0.0 | 0.0 | 0.00 | 0.00 | 0.00 | 92 | 1021.2 |
| 20260830125631 | 60 | 256 | 0.0 | 0.0 | 0.00 | 0.00 | 0.00 | 92 | 1021.3 |
| 20260830125126 | 60 | 237 | 0.0 | 0.0 | 0.00 | 0.00 | 0.00 | 92 | 1021.3 |
| 20260830124624 | 60 | 277 | 0.0 | 0.0 | 0.00 | 0.00 | 0.00 | 93 | 1021.3 |
| 20260830124120 | 60 | 239 | 1.0 | 1.0 | 0.00 | 0.00 | 0.00 | 93 | 1021.5 |
| 20260830123617 | 60 | 276 | 0.0 | 0.0 | 0.00 | 0.00 | 0.00 | 94 | 1021.3 |
| 20260830123112 | 60 | 264 | 0.0 | 0.0 | 0.00 | 0.00 | 0.00 | 94 | 1021.4 |
| 20260830122609 | 60 | 266 | 0.0 | 0.0 | 0.00 | 0.00 | 0.00 | 95 | 1021.5 |
| 20260830122104 | 59 | 93 | 0.0 | 1.0 | 0.00 | 0.00 | 0.00 | 97 | 1021.1 |
| 20260830121601 | 59 | 277 | 0.0 | 0.0 | 0.00 | 0.00 | 0.00 | 97 | 1021.4 |
| 20260830121100 | 58 | 328 | 1.0 | 1.0 | 0.00 | 0.00 | 0.00 | 97 | 1021.3 |
| 20260830120555 | 58 | 272 | 0.0 | 0.0 | 0.00 | 0.00 | 0.00 | 98 | 1021.4 |
| 20260830120051 | 58 | 14 | 1.0 | 1.0 | 0.00 | 0.00 | 0.00 | 98 | 1021.3 |
| 20260830115547 | 57 | 233 | 0.0 | 1.0 | 0.00 | 0.00 | 0.00 | 98 | 1021.5 |
| 20260830115042 | 57 | 294 | 0.0 | 0.0 | 0.00 | 0.00 | 0.00 | 98 | 1021.6 |
| 20260830114539 | 57 | 292 | 0.0 | 0.0 | 0.00 | 0.00 | 0.00 | 98 | 1021.6 |
| 20260830114038 | 57 | 291 | 0.0 | 0.0 | 0.00 | 0.00 | 0.00 | 98 | 1021.8 |
| 20260830113533 | 57 | 282 | 0.0 | 0.0 | 0.00 | 0.00 | 0.00 | 98 | 1021.6 |
| 20260830113029 | 57 | 292 | 0.0 | 0.0 | 0.00 | 0.00 | 0.00 | 98 | 1021.8 |
| 20260830112525 | 57 | 276 | 0.0 | 0.0 | 0.00 | 0.00 | 0.00 | 98 | 1021.8 |
| 20260830112021 | 57 | 286 | 0.0 | 0.0 | 0.00 | 0.00 | 0.00 | 98 | 1022.0 |
| 20260830111516 | 57 | 277 | 0.0 | 0.0 | 0.00 | 0.00 | 0.00 | 98 | 1021.8 |
| 20260830111013 | 57 | 265 | 0.0 | 0.0 | 0.00 | 0.00 | 0.00 | 98 | 1021.9 |
| 20260830110512 | 57 | 279 | 0.0 | 0.0 | 0.00 | 0.00 | 0.00 | 98 | 1021.9 |
| 20260830110007 | 56 | 252 | 0.0 | 0.0 | 0.00 | 0.00 | 0.00 | 98 | 1022.0 |
| 20260830105503 | 56 | 264 | 0.0 | 0.0 | 0.00 | 0.00 | 0.00 | 98 | 1022.2 |
| 20260830104959 | 55 | 286 | 0.0 | 0.0 | 0.00 | 0.00 | 0.00 | 98 | 1021.9 |
| 20260830104455 | 55 | 268 | 0.0 | 0.0 | 0.00 | 0.00 | 0.00 | 98 | 1021.9 |
| 20260830103950 | 55 | 270 | 0.0 | 0.0 | 0.00 | 0.00 | 0.00 | 98 | 1021.7 |
| 20260830103446 | 55 | 269 | 0.0 | 0.0 | 0.00 | 0.00 | 0.00 | 98 | 1021.8 |
| 20260830102944 | 55 | 280 | 0.0 | 0.0 | 0.00 | 0.00 | 0.00 | 98 | 1021.7 |
| 20260830102439 | 55 | 267 | 0.0 | 0.0 | 0.00 | 0.00 | 0.00 | 98 | 1021.8 |
| 20260830101935 | 55 | 263 | 0.0 | 0.0 | 0.00 | 0.00 | 0.00 | 98 | 1021.8 |
| 20260830101430 | 55 | 273 | 0.0 | 0.0 | 0.00 | 0.00 | 0.00 | 98 | 1021.8 |
| 20260830100930 | 55 | 273 | 0.0 | 0.0 | 0.00 | 0.00 | 0.00 | 98 | 1021.7 |
| 20260830100429 | 55 | 276 | 0.0 | 0.0 | 0.00 | 0.00 | 0.00 | 98 | 1021.7 |
| 20260830095928 | 55 | 265 | 0.0 | 0.0 | 0.00 | 0.00 | 0.00 | 98 | 1021.9 |
| 20260830095424 | 56 | 271 | 0.0 | 0.0 | 0.00 | 0.00 | 0.00 | 98 | 1021.9 |
| 20260830094920 | 56 | 267 | 0.0 | 0.0 | 0.00 | 0.00 | 0.00 | 98 | 1022.0 |
| 20260830094416 | 56 | 240 | 0.0 | 0.0 | 0.00 | 0.00 | 0.00 | 98 | 1022.1 |
| 20260830093911 | 56 | 268 | 0.0 | 0.0 | 0.00 | 0.00 | 0.00 | 98 | 1022.1 |
| 20260830093407 | 56 | 277 | 0.0 | 0.0 | 0.00 | 0.00 | 0.00 | 98 | 1022.0 |
| 20260830092902 | 56 | 275 | 0.0 | 0.0 | 0.00 | 0.00 | 0.00 | 98 | 1021.9 |
| 20260830092358 | 56 | 274 | 0.0 | 0.0 | 0.00 | 0.00 | 0.00 | 98 | 1022.2 |
| 20260830091854 | 56 | 275 | 0.0 | 0.0 | 0.00 | 0.00 | 0.00 | 98 | 1022.0 |
| 20260830091354 | 56 | 265 | 0.0 | 0.0 | 0.00 | 0.00 | 0.00 | 98 | 1021.9 |
| 20260830090853 | 56 | 262 | 0.0 | 0.0 | 0.00 | 0.00 | 0.00 | 98 | 1022.1 |
| 20260830090348 | 56 | 262 | 0.0 | 0.0 | 0.00 | 0.00 | 0.00 | 98 | 1022.0 |
| 20260830085848 | 56 | 263 | 0.0 | 0.0 | 0.00 | 0.00 | 0.00 | 98 | 1022.2 |
| 20260830085343 | 56 | 270 | 0.0 | 0.0 | 0.00 | 0.00 | 0.00 | 98 | 1022.0 |
| 20260830084839 | 56 | 273 | 0.0 | 0.0 | 0.00 | 0.00 | 0.00 | 98 | 1022.1 |
| 20260830084334 | 56 | 276 | 0.0 | 0.0 | 0.00 | 0.00 | 0.00 | 98 | 1022.2 |
| 20260830083829 | 57 | 288 | 0.0 | 0.0 | 0.00 | 0.00 | 0.00 | 98 | 1022.2 |
| 20260830083325 | 57 | 268 | 0.0 | 0.0 | 0.00 | 0.00 | 0.00 | 98 | 1022.2 |
| 20260830082824 | 57 | 262 | 0.0 | 0.0 | 0.00 | 0.00 | 0.00 | 98 | 1022.2 |
| 20260830082320 | 57 | 266 | 0.0 | 0.0 | 0.00 | 0.00 | 0.00 | 98 | 1022.3 |
| 20260830081815 | 57 | 282 | 0.0 | 0.0 | 0.00 | 0.00 | 0.00 | 98 | 1022.3 |
| 20260830081309 | 57 | 264 | 0.0 | 0.0 | 0.00 | 0.00 | 0.00 | 98 | 1022.2 |
| 20260830080808 | 57 | 262 | 0.0 | 0.0 | 0.00 | 0.00 | 0.00 | 98 | 1022.3 |
| 20260830080305 | 57 | 272 | 0.0 | 0.0 | 0.00 | 0.00 | 0.00 | 98 | 1022.2 |
| 20260830075759 | 57 | 269 | 0.0 | 0.0 | 0.00 | 0.00 | 0.00 | 98 | 1022.2 |
| 20260830075255 | 57 | 279 | 0.0 | 0.0 | 0.00 | 0.00 | 0.00 | 98 | 1022.3 |
| 20260830074749 | 57 | 274 | 0.0 | 0.0 | 0.00 | 0.00 | 0.00 | 98 | 1022.5 |
| 20260830074246 | 57 | 268 | 0.0 | 0.0 | 0.00 | 0.00 | 0.00 | 98 | 1022.3 |
| 20260830073741 | 57 | 274 | 0.0 | 0.0 | 0.00 | 0.00 | 0.00 | 98 | 1022.6 |
| 20260830073236 | 57 | 275 | 0.0 | 0.0 | 0.00 | 0.00 | 0.00 | 98 | 1022.5 |
| 20260830072731 | 57 | 257 | 0.0 | 0.0 | 0.00 | 0.00 | 0.00 | 98 | 1022.5 |
| 20260830072226 | 57 | 257 | 0.0 | 0.0 | 0.00 | 0.00 | 0.00 | 98 | 1022.6 |
| 20260830071721 | 57 | 270 | 0.0 | 0.0 | 0.00 | 0.00 | 0.00 | 98 | 1022.4 |
| 20260830071220 | 57 | 268 | 0.0 | 0.0 | 0.00 | 0.00 | 0.00 | 98 | 1022.5 |
| 20260830070714 | 57 | 258 | 0.0 | 0.0 | 0.00 | 0.00 | 0.00 | 98 | 1022.6 |
| 20260830070214 | 57 | 266 | 0.0 | 0.0 | 0.00 | 0.00 | 0.00 | 98 | 1022.5 |
| 20260830065713 | 57 | 269 | 0.0 | 0.0 | 0.00 | 0.00 | 0.00 | 98 | 1022.4 |
| 20260830065208 | 57 | 271 | 0.0 | 0.0 | 0.00 | 0.00 | 0.00 | 98 | 1022.3 |
| 20260830064706 | 57 | 264 | 0.0 | 0.0 | 0.00 | 0.00 | 0.00 | 98 | 1022.1 |
| 20260830064201 | 57 | 273 | 0.0 | 0.0 | 0.00 | 0.00 | 0.00 | 98 | 1022.2 |
| 20260830063656 | 57 | 274 | 0.0 | 0.0 | 0.00 | 0.00 | 0.00 | 98 | 1022.2 |
| 20260830063155 | 57 | 262 | 0.0 | 0.0 | 0.00 | 0.00 | 0.00 | 98 | 1022.2 |
| 20260830062650 | 57 | 264 | 0.0 | 0.0 | 0.00 | 0.00 | 0.00 | 98 | 1022.3 |
| 20260830062144 | 57 | 263 | 0.0 | 0.0 | 0.00 | 0.00 | 0.00 | 98 | 1022.3 |
| 20260830061639 | 57 | 275 | 0.0 | 0.0 | 0.00 | 0.00 | 0.00 | 98 | 1022.4 |
| 20260830061135 | 57 | 275 | 0.0 | 0.0 | 0.00 | 0.00 | 0.00 | 98 | 1022.5 |
| 20260830060632 | 57 | 266 | 0.0 | 0.0 | 0.00 | 0.00 | 0.00 | 98 | 1022.7 |
| 20260830060128 | 57 | 256 | 0.0 | 0.0 | 0.00 | 0.00 | 0.00 | 98 | 1022.4 |
| 20260830055622 | 57 | 260 | 0.0 | 0.0 | 0.00 | 0.00 | 0.00 | 98 | 1022.3 |
| 20260830055118 | 57 | 259 | 0.0 | 0.0 | 0.00 | 0.00 | 0.00 | 98 | 1022.2 |
| 20260830054613 | 57 | 256 | 0.0 | 0.0 | 0.00 | 0.00 | 0.00 | 98 | 1022.2 |
| 20260830054109 | 57 | 260 | 0.0 | 0.0 | 0.00 | 0.00 | 0.00 | 98 | 1022.3 |
| 20260830053604 | 57 | 254 | 0.0 | 0.0 | 0.00 | 0.00 | 0.00 | 98 | 1022.2 |
| 20260830053104 | 57 | 249 | 0.0 | 0.0 | 0.00 | 0.00 | 0.00 | 98 | 1022.4 |
| 20260830052559 | 57 | 270 | 0.0 | 0.0 | 0.00 | 0.00 | 0.00 | 98 | 1022.2 |
| 20260830052100 | 57 | 284 | 0.0 | 0.0 | 0.00 | 0.00 | 0.00 | 98 | 1022.3 |
| 20260830051549 | 57 | 253 | 0.0 | 0.0 | 0.00 | 0.00 | 0.00 | 98 | 1022.3 |
| 20260830051045 | 57 | 250 | 0.0 | 0.0 | 0.00 | 0.00 | 0.00 | 98 | 1022.3 |
| 20260830050538 | 57 | 277 | 0.0 | 0.0 | 0.00 | 0.00 | 0.00 | 98 | 1022.5 |
| 20260830050038 | 57 | 57 | 0.0 | 0.0 | 0.00 | 0.00 | 0.00 | 98 | 1022.3 |
| 20260830045537 | 57 | 16 | 0.0 | 0.0 | 0.00 | 0.00 | 0.00 | 98 | 1022.4 |
| 20260830045033 | 57 | 290 | 0.0 | 0.0 | 0.00 | 0.00 | 0.00 | 98 | 1022.6 |
| 20260830044527 | 57 | 277 | 0.0 | 0.0 | 0.00 | 0.00 | 0.00 | 98 | 1022.6 |
| 20260830044021 | 57 | 269 | 0.0 | 0.0 | 0.00 | 0.00 | 0.00 | 98 | 1022.9 |
| 20260830043517 | 57 | 267 | 0.0 | 0.0 | 0.00 | 0.00 | 0.00 | 98 | 1022.8 |
| 20260830043016 | 56 | 280 | 0.0 | 0.0 | 0.00 | 0.00 | 0.00 | 98 | 1022.6 |
| 20260830042514 | 56 | 276 | 0.0 | 0.0 | 0.00 | 0.00 | 0.00 | 98 | 1022.5 |
| 20260830042009 | 56 | 264 | 0.0 | 0.0 | 0.00 | 0.00 | 0.00 | 98 | 1022.6 |
| 20260830041508 | 56 | 262 | 0.0 | 0.0 | 0.00 | 0.00 | 0.00 | 98 | 1022.6 |
| 20260830041003 | 56 | 267 | 0.0 | 0.0 | 0.00 | 0.00 | 0.00 | 98 | 1022.6 |
| 20260830040458 | 56 | 267 | 0.0 | 0.0 | 0.00 | 0.00 | 0.00 | 98 | 1022.4 |
| 20260830035957 | 57 | 275 | 0.0 | 0.0 | 0.00 | 0.00 | 0.00 | 98 | 1022.4 |
| 20260830035456 | 56 | 292 | 0.0 | 0.0 | 0.00 | 0.00 | 0.00 | 98 | 1022.3 |
| 20260830034952 | 57 | 273 | 0.0 | 0.0 | 0.00 | 0.00 | 0.00 | 97 | 1022.2 |
| 20260830034447 | 56 | 279 | 0.0 | 0.0 | 0.00 | 0.00 | 0.00 | 97 | 1022.2 |
| 20260830033941 | 56 | 273 | 0.0 | 1.0 | 0.00 | 0.00 | 0.00 | 97 | 1022.1 |
| 20260830033436 | 57 | 79 | 1.0 | 1.0 | 0.00 | 0.00 | 0.00 | 97 | 1021.9 |
| 20260830032932 | 57 | 317 | 0.0 | 1.0 | 0.00 | 0.00 | 0.00 | 97 | 1022.3 |
| 20260830032431 | 56 | 286 | 0.0 | 0.0 | 0.00 | 0.00 | 0.00 | 97 | 1022.1 |
| 20260830031926 | 57 | 311 | 0.0 | 0.0 | 0.00 | 0.00 | 0.00 | 97 | 1022.1 |
| 20260830031422 | 57 | 56 | 0.0 | 0.0 | 0.00 | 0.00 | 0.00 | 97 | 1022.3 |
| 20260830030917 | 57 | 297 | 0.0 | 0.0 | 0.00 | 0.00 | 0.00 | 97 | 1022.5 |
| 20260830030413 | 57 | 281 | 0.0 | 0.0 | 0.00 | 0.00 | 0.00 | 97 | 1022.5 |
| 20260830025907 | 57 | 257 | 0.0 | 0.0 | 0.00 | 0.00 | 0.00 | 97 | 1022.5 |
| 20260830025406 | 57 | 253 | 0.0 | 0.0 | 0.00 | 0.00 | 0.00 | 97 | 1022.6 |
| 20260830024905 | 57 | 255 | 0.0 | 0.0 | 0.00 | 0.00 | 0.00 | 97 | 1022.6 |
| 20260830024401 | 57 | 256 | 0.0 | 0.0 | 0.00 | 0.00 | 0.00 | 97 | 1022.7 |
| 20260830023858 | 57 | 269 | 0.0 | 0.0 | 0.00 | 0.00 | 0.00 | 97 | 1022.5 |
| 20260830023357 | 57 | 276 | 0.0 | 0.0 | 0.00 | 0.00 | 0.00 | 97 | 1022.6 |
| 20260830022856 | 57 | 265 | 0.0 | 0.0 | 0.00 | 0.00 | 0.00 | 97 | 1022.6 |
| 20260830022352 | 57 | 261 | 0.0 | 0.0 | 0.00 | 0.00 | 0.00 | 97 | 1022.5 |
| 20260830021851 | 57 | 269 | 0.0 | 0.0 | 0.00 | 0.00 | 0.00 | 97 | 1022.6 |
| 20260830021346 | 58 | 268 | 0.0 | 0.0 | 0.00 | 0.00 | 0.00 | 97 | 1022.3 |
| 20260830020841 | 58 | 265 | 0.0 | 0.0 | 0.00 | 0.00 | 0.00 | 97 | 1022.5 |
| 20260830020335 | 58 | 255 | 0.0 | 0.0 | 0.00 | 0.00 | 0.00 | 96 | 1022.3 |
| 20260830015831 | 58 | 267 | 0.0 | 0.0 | 0.00 | 0.00 | 0.00 | 96 | 1022.2 |
| 20260830015326 | 58 | 272 | 0.0 | 0.0 | 0.00 | 0.00 | 0.00 | 96 | 1022.2 |
| 20260830014821 | 58 | 288 | 0.0 | 0.0 | 0.00 | 0.00 | 0.00 | 96 | 1022.3 |
| 20260830014317 | 59 | 255 | 0.0 | 0.0 | 0.00 | 0.00 | 0.00 | 96 | 1022.2 |
| 20260830013813 | 59 | 266 | 0.0 | 0.0 | 0.00 | 0.00 | 0.00 | 96 | 1022.2 |
| 20260830013307 | 59 | 282 | 0.0 | 0.0 | 0.00 | 0.00 | 0.00 | 96 | 1022.2 |
| 20260830012802 | 59 | 267 | 0.0 | 0.0 | 0.00 | 0.00 | 0.00 | 95 | 1022.4 |
| 20260830012253 | 59 | 258 | 0.0 | 0.0 | 0.00 | 0.00 | 0.00 | 95 | 1022.4 |
| 20260830011749 | 59 | 248 | 0.0 | 0.0 | 0.00 | 0.00 | 0.00 | 95 | 1022.1 |
| 20260830011243 | 59 | 275 | 0.0 | 0.0 | 0.00 | 0.00 | 0.00 | 95 | 1022.4 |
| 20260830010738 | 60 | 285 | 0.0 | 0.0 | 0.00 | 0.00 | 0.00 | 95 | 1022.1 |
| 20260830010233 | 60 | 217 | 0.0 | 0.0 | 0.00 | 0.00 | 0.00 | 95 | 1022.1 |
| 20260830005732 | 60 | 269 | 0.0 | 0.0 | 0.00 | 0.00 | 0.00 | 95 | 1022.1 |
| 20260830005230 | 60 | 267 | 0.0 | 0.0 | 0.00 | 0.00 | 0.00 | 94 | 1022.2 |
| 20260830004725 | 60 | 269 | 0.0 | 0.0 | 0.00 | 0.00 | 0.00 | 94 | 1022.1 |
| 20260830004220 | 60 | 270 | 0.0 | 0.0 | 0.00 | 0.00 | 0.00 | 94 | 1022.1 |
| 20260830003715 | 61 | 268 | 0.0 | 0.0 | 0.00 | 0.00 | 0.00 | 93 | 1022.2 |
| 20260830003209 | 61 | 287 | 0.0 | 0.0 | 0.00 | 0.00 | 0.00 | 93 | 1022.0 |
| 20260830002707 | 61 | 267 | 0.0 | 0.0 | 0.00 | 0.00 | 0.00 | 92 | 1022.1 |
| 20260830002203 | 61 | 267 | 0.0 | 0.0 | 0.00 | 0.00 | 0.00 | 92 | 1022.0 |